Tucson Davis Monthan, AZ

8:47 AM MST on December 14, 2019 (GMT -0700)
Davis-Monthan Air Force Base

Weather History for KDMA - October, 2019

Change the Weather History Date:

Monday, October 28, 2019

  Actual Average Record
Temperature  
Mean Temperature 60 °F -  
Max Temperature 72 °F 79 °F 92 °F (1952)
Min Temperature 46 °F 51 °F 38 °F (1970)
Degree Days  
Heating Degree Days 4    
Growing Degree Days 10 (Base 50)    
Moisture  
Dew Point 25 °F    
Average Humidity 26    
Maximum Humidity 51    
Minimum Humidity 14    
Precipitation  
Precipitation 0.00 in - - ()
Sea Level Pressure  
Sea Level Pressure 29.87 in    
Wind  
Wind Speed 6 mph (NW)    
Max Wind Speed 15 mph    
Max Gust Speed -    
Visibility 10 miles    
Events      
Averages and records for this station are not official NWS values.
T = Trace of Precipitation, MM = Missing Value Source: NWS Daily Summary

Daily Weather History Graph

Daily Weather History Graph

Search for Another Location

Airport or City:

Astronomy

Oct. 28, 2019 Rise Set
Actual Time 6:36 AM MST 5:37 PM MST
Civil Twilight 6:11 AM MST 6:02 PM MST
Nautical Twilight 5:43 AM MST 6:31 PM MST
Astronomical Twilight 5:14 AM MST 6:59 PM MST
Moon 7:03 AM MST (10/28) 6:25 PM MST (10/28)
Length of Visible Light 11h 50m
Length of Day
11h 00m
New Moon, 1% of the Moon is Illuminated
Oct 28
New Moon
Nov 4
First Quarter
Nov 12
Full
Nov 19
Last Quarter
Nov 26
New

Hourly Weather History & Observations

Time (MST) Temp. Dew Point Humidity Pressure Visibility Wind Dir Wind Speed Gust Speed Precip Events Conditions
12:58 AM 64.6 °F 31.6 °F 29% 29.74 in 10.0 mi SSW 4.6 mph - N/A   Clear
1:58 AM 59.4 °F 30.9 °F 34% 29.76 in 10.0 mi South 10.4 mph - N/A   Clear
2:58 AM 64.9 °F 34.3 °F 32% 29.78 in 10.0 mi Calm Calm - N/A   Clear
3:58 AM 61.9 °F 35.2 °F 37% 29.81 in 10.0 mi Calm Calm - N/A   Clear
4:58 AM 59.4 °F 36.3 °F 42% 29.83 in 10.0 mi WSW 6.9 mph - N/A   Clear
5:58 AM 59.0 °F 37.0 °F 44% 29.85 in 10.0 mi WSW 6.9 mph - N/A   Clear
6:58 AM 55.0 °F 37.2 °F 51% 29.87 in 10.0 mi Calm Calm - N/A   Clear
7:58 AM 60.6 °F 34.2 °F 37% 29.91 in 10.0 mi NNW 9.2 mph - N/A   Clear
8:58 AM 61.9 °F 24.6 °F 24% 29.92 in 10.0 mi NW 5.8 mph - N/A   Clear
9:58 AM 64.4 °F 25.7 °F 23% 29.94 in 10.0 mi West 4.6 mph - N/A   Clear
10:58 AM 66.7 °F 21.9 °F 18% 29.93 in 10.0 mi NNW 8.1 mph - N/A   Clear
11:58 AM 68.4 °F 24.4 °F 19% 29.91 in 10.0 mi NNW 5.8 mph - N/A   Clear
12:58 PM 70.7 °F 23.7 °F 17% 29.87 in 10.0 mi NNE 6.9 mph - N/A   Clear
1:58 PM 72.3 °F 20.5 °F 14% 29.86 in 10.0 mi NNW 10.4 mph - N/A   Clear
2:58 PM 71.4 °F 19.8 °F 14% 29.84 in 10.0 mi North 15.0 mph - N/A   Clear
3:58 PM 69.8 °F 18.5 °F 14% 29.84 in 10.0 mi NW 15.0 mph - N/A   Clear
4:58 PM 67.3 °F 16.3 °F 14% 29.85 in 10.0 mi NNW 13.8 mph - N/A   Clear
5:58 PM 63.5 °F 16.5 °F 16% 29.86 in 10.0 mi NW 9.2 mph - N/A   Clear
6:58 PM 60.6 °F 16.9 °F 18% 29.89 in 10.0 mi NW 8.1 mph - N/A   Clear
7:58 PM 57.6 °F 16.7 °F 20% 29.90 in 10.0 mi WNW 4.6 mph - N/A   Clear
8:58 PM 54.1 °F 17.1 °F 23% 29.91 in 10.0 mi Calm Calm - N/A   Clear
9:58 PM 50.9 °F 17.2 °F 26% 29.92 in 10.0 mi ESE 6.9 mph - N/A   Clear
10:58 PM 49.3 °F 18.3 °F 29% 29.91 in 10.0 mi East 5.8 mph - N/A   Clear
11:58 PM 46.8 °F 19.2 °F 33% 29.91 in 10.0 mi ESE 5.8 mph - N/A   Clear